Location: Grandview
(34.8900°N, 117.1058°W)
Time: 18:31:17
(UTC-07:00)

ISS - Pass Details

Date: 11 October 2017
Orbit: 401 x 408 km, 51.6° (Epoch: 20 October)

Event Time Altitude Azimuth Distance (km) Brightness Sun altitude
Rises 20:33:04 0° 315° (NW) 2,324 0.8 -28.4°
Reaches altitude 10° 20:35:10 10° 319° (NW) 1,463 -0.4 -28.8°
Enters shadow 20:35:26 12° 320° (NW) 1,357 -0.6 -28.8°
